EW3857 Weather Reports


Display with metric or nautical units.
time (UTC)temp
F
wind
direction
speed
MPH
gust
MPH
rain 1hr
in
rain 24hr
in
rain mn
in
humidity
%
barometer
mb
20260906220454 94 282 1.0 1.0 0.00 0.00 0.00 57 1011.7
20260906215949 94 275 1.0 1.0 0.00 0.00 0.00 57 1011.6
20260906215449 94 244 0.0 0.0 0.00 0.00 0.00 59 1011.8
20260906214947 93 217 0.0 0.0 0.00 0.00 0.00 61 1011.9
20260906214445 93 213 1.0 1.0 0.00 0.00 0.00 61 1011.7
20260906213945 93 212 0.0 0.0 0.00 0.00 0.00 59 1012.0
20260906213434 93 213 0.0 0.0 0.00 0.00 0.00 61 1011.9
20260906212933 93 186 1.0 1.0 0.00 0.00 0.00 60 1011.6
20260906212427 93 147 2.0 2.0 0.00 0.00 0.00 61 1012.0
20260906211927 93 159 4.0 5.0 0.00 0.00 0.00 63 1012.1
20260906211422 93 150 3.0 3.0 0.00 0.00 0.00 60 1011.9
20260906210917 93 184 1.0 1.0 0.00 0.00 0.00 60 1011.8
20260906210413 93 214 0.0 0.0 0.00 0.00 0.00 62 1012.0
20260906205907 93 127 5.0 6.0 0.00 0.00 0.00 64 1012.1
20260906205404 93 151 3.0 3.0 0.00 0.00 0.00 60 1012.0
20260906204859 93 143 2.0 2.0 0.00 0.00 0.00 63 1012.1
20260906204358 93 166 1.0 1.0 0.00 0.00 0.00 60 1012.2
20260906203857 94 152 4.0 5.0 0.00 0.00 0.00 61 1012.0
20260906203352 94 196 2.0 2.0 0.00 0.00 0.00 60 1012.4
20260906202850 94 207 1.0 1.0 0.00 0.00 0.00 60 1012.3
20260906202344 94 204 1.0 2.0 0.00 0.00 0.00 61 1012.2
20260906201843 94 188 0.0 1.0 0.00 0.00 0.00 59 1012.5
20260906201339 94 105 1.0 1.0 0.00 0.00 0.00 62 1012.5
20260906200833 93 102 1.0 1.0 0.00 0.00 0.00 63 1012.4
20260906200330 93 98 1.0 1.0 0.00 0.00 0.00 62 1012.6
20260906195824 93 88 3.0 3.0 0.00 0.00 0.00 61 1012.6
20260906195321 93 121 2.0 2.0 0.00 0.00 0.00 60 1012.6
20260906194816 93 113 1.0 2.0 0.00 0.00 0.00 63 1012.9
20260906194312 93 121 1.0 1.0 0.00 0.00 0.00 61 1013.2
20260906193807 93 121 2.0 2.0 0.00 0.00 0.00 60 1013.0
20260906193302 93 130 2.0 2.0 0.00 0.00 0.00 62 1013.2
20260906192757 93 122 1.0 1.0 0.00 0.00 0.00 65 1013.4
20260906192251 93 112 1.0 1.0 0.00 0.00 0.00 62 1013.4
20260906191750 92 121 2.0 2.0 0.00 0.00 0.00 66 1013.4
20260906191245 92 140 2.0 2.0 0.00 0.00 0.00 63 1013.5
20260906190740 92 128 2.0 3.0 0.00 0.00 0.00 69 1013.6
20260906190234 92 136 2.0 2.0 0.00 0.00 0.00 66 1014.0
20260906185733 92 115 2.0 2.0 0.00 0.00 0.00 66 1013.8
20260906185232 92 95 1.0 1.0 0.00 0.00 0.00 65 1013.9
20260906184727 92 108 3.0 3.0 0.00 0.00 0.00 67 1014.2
20260906184223 91 97 2.0 2.0 0.00 0.00 0.00 64 1014.0
20260906183718 91 90 2.0 2.0 0.00 0.00 0.00 66 1014.1
20260906183214 91 106 2.0 2.0 0.00 0.00 0.00 65 1014.1
20260906182714 91 97 1.0 1.0 0.00 0.00 0.00 64 1014.4
20260906182210 92 64 1.0 2.0 0.00 0.00 0.00 64 1014.6
20260906181705 92 233 1.0 1.0 0.00 0.00 0.00 65 1014.5
20260906181201 92 40 1.0 1.0 0.00 0.00 0.00 64 1014.3
20260906180655 91 21 4.0 5.0 0.00 0.00 0.00 63 1014.5
20260906180150 91 156 1.0 2.0 0.00 0.00 0.00 66 1014.7
20260906175643 91 159 2.0 2.0 0.00 0.00 0.00 67 1014.6
20260906175138 91 172 2.0 2.0 0.00 0.00 0.00 65 1014.6
20260906174637 91 167 1.0 1.0 0.00 0.00 0.00 64 1014.8
20260906174132 91 175 0.0 0.0 0.00 0.00 0.00 66 1014.8
20260906173626 91 171 1.0 1.0 0.00 0.00 0.00 65 1014.9
20260906173122 90 166 1.0 2.0 0.00 0.00 0.00 65 1014.8
20260906172621 90 171 0.0 1.0 0.00 0.00 0.00 67 1015.1
20260906172117 89 174 1.0 1.0 0.00 0.00 0.00 70 1015.0
20260906171616 89 163 2.0 3.0 0.00 0.00 0.00 73 1015.1
20260906171113 89 170 2.0 2.0 0.00 0.00 0.00 69 1015.1
20260906170609 89 162 4.0 5.0 0.00 0.00 0.00 71 1015.3
20260906170108 88 171 1.0 2.0 0.00 0.00 0.00 70 1015.3
20260906165604 87 174 1.0 1.0 0.00 0.00 0.00 70 1015.3
20260906165059 87 162 1.0 1.0 0.00 0.00 0.00 71 1015.3
20260906164558 88 164 1.0 2.0 0.00 0.00 0.00 69 1015.2
20260906164054 87 176 0.0 1.0 0.00 0.00 0.00 72 1015.2
20260906163549 86 170 1.0 1.0 0.00 0.00 0.00 72 1015.3
20260906163045 86 168 1.0 1.0 0.00 0.00 0.00 72 1015.3
20260906162542 86 160 2.0 2.0 0.00 0.00 0.00 74 1015.6
20260906162037 86 168 1.0 1.0 0.00 0.00 0.00 75 1015.5
20260906161532 85 162 1.0 2.0 0.00 0.00 0.00 75 1015.6
20260906161031 85 157 2.0 2.0 0.00 0.00 0.00 75 1015.6
20260906160531 85 150 3.0 5.0 0.00 0.00 0.00 76 1015.5
20260906160029 85 152 2.0 2.0 0.00 0.00 0.00 77 1015.7
20260906155526 85 157 1.0 1.0 0.00 0.00 0.00 78 1015.8
20260906155023 85 159 2.0 2.0 0.00 0.00 0.00 75 1015.8
20260906154518 84 169 1.0 1.0 0.00 0.00 0.00 75 1015.6
20260906154016 84 164 1.0 1.0 0.00 0.00 0.00 76 1015.7
20260906153515 84 167 1.0 1.0 0.00 0.00 0.00 75 1015.6
20260906153010 83 158 3.0 3.0 0.00 0.00 0.00 76 1015.5
20260906152504 83 164 2.0 2.0 0.00 0.00 0.00 77 1015.7
20260906151958 83 174 0.0 0.0 0.00 0.00 0.00 77 1015.5
20260906151454 83 170 0.0 0.0 0.00 0.00 0.00 78 1015.5
20260906150949 82 173 0.0 0.0 0.00 0.00 0.00 77 1015.5
20260906150444 82 176 0.0 1.0 0.00 0.00 0.00 80 1015.5
20260906145943 82 168 1.0 1.0 0.00 0.00 0.00 80 1015.5
20260906145438 81 161 0.0 0.0 0.00 0.00 0.00 80 1015.5
20260906144932 81 178 1.0 1.0 0.00 0.00 0.00 81 1015.3
20260906144427 81 176 0.0 1.0 0.00 0.00 0.00 81 1015.5
20260906143923 80 174 1.0 1.0 0.00 0.00 0.00 82 1015.3
20260906143418 80 160 1.0 1.0 0.00 0.00 0.00 82 1015.5
20260906142914 80 166 2.0 2.0 0.00 0.00 0.00 82 1015.2
20260906142413 80 151 3.0 3.0 0.00 0.00 0.00 80 1015.5
20260906141908 80 161 2.0 2.0 0.00 0.00 0.00 81 1015.6
20260906141408 80 150 2.0 2.0 0.00 0.00 0.00 81 1015.4
20260906140902 81 154 3.0 3.0 0.00 0.00 0.00 81 1015.5
20260906140357 80 161 1.0 2.0 0.00 0.00 0.00 80 1015.5
20260906135854 81 163 0.0 2.0 0.00 0.00 0.00 82 1015.6
20260906135348 81 164 1.0 1.0 0.00 0.00 0.00 80 1015.6
20260906134844 81 159 2.0 2.0 0.00 0.00 0.00 79 1015.7
20260906134339 80 176 0.0 0.0 0.00 0.00 0.00 81 1015.6
20260906133835 80 181 1.0 1.0 0.00 0.00 0.00 81 1015.7
20260906133330 80 164 1.0 2.0 0.00 0.00 0.00 81 1015.8
20260906132826 79 182 0.0 1.0 0.00 0.00 0.00 82 1015.8
20260906132320 79 166 2.0 2.0 0.00 0.00 0.00 81 1015.8
20260906131816 79 183 0.0 1.0 0.00 0.00 0.00 83 1015.6
20260906131306 78 167 0.0 0.0 0.00 0.00 0.00 83 1016.0
20260906130802 78 153 3.0 3.0 0.00 0.00 0.00 84 1015.7
20260906130256 78 157 1.0 1.0 0.00 0.00 0.00 85 1015.9
20260906125755 78 150 4.0 5.0 0.00 0.00 0.00 85 1015.8
20260906125253 78 180 2.0 2.0 0.00 0.00 0.00 87 1015.9
20260906124753 77 158 3.0 3.0 0.00 0.00 0.00 87 1016.0
20260906124249 77 180 0.0 0.0 0.00 0.00 0.00 88 1015.9
20260906123747 77 173 2.0 3.0 0.00 0.00 0.00 89 1015.9
20260906123243 77 180 1.0 1.0 0.00 0.00 0.00 88 1015.8
20260906122742 77 181 2.0 2.0 0.00 0.00 0.00 89 1015.9
20260906122237 77 155 3.0 3.0 0.00 0.00 0.00 89 1016.1
20260906121734 77 182 0.0 0.0 0.00 0.00 0.00 89 1015.9
20260906121230 77 181 1.0 1.0 0.00 0.00 0.00 89 1016.1
20260906120726 77 153 3.0 3.0 0.00 0.00 0.00 90 1015.8
20260906120222 76 172 1.0 1.0 0.00 0.00 0.00 90 1016.0
20260906115718 76 183 1.0 1.0 0.00 0.00 0.00 90 1015.9
20260906115213 76 183 0.0 1.0 0.00 0.00 0.00 89 1015.7
20260906114711 77 182 0.0 0.0 0.00 0.00 0.00 89 1015.6
20260906114207 76 180 3.0 3.0 0.00 0.00 0.00 90 1015.8
20260906113702 76 183 1.0 2.0 0.00 0.00 0.00 90 1015.8
20260906113201 76 181 0.0 0.0 0.00 0.00 0.00 90 1015.9
20260906112701 76 181 0.0 0.0 0.00 0.00 0.00 90 1015.6
20260906112158 76 181 0.0 0.0 0.00 0.00 0.00 91 1015.6
20260906111657 76 174 1.0 2.0 0.00 0.00 0.00 91 1015.6
20260906111152 76 183 0.0 0.0 0.00 0.00 0.00 90 1015.4
20260906110647 76 183 0.0 0.0 0.00 0.00 0.00 90 1015.1
20260906110142 76 183 1.0 1.0 0.00 0.00 0.00 91 1015.1
20260906105636 76 183 0.0 0.0 0.00 0.00 0.00 91 1015.1
20260906105132 75 182 0.0 0.0 0.00 0.00 0.00 91 1015.0
20260906104631 75 182 0.0 0.0 0.00 0.00 0.00 91 1015.1
20260906104125 75 182 0.0 0.0 0.00 0.00 0.00 91 1015.3
20260906103623 75 182 0.0 0.0 0.00 0.00 0.00 91 1015.3
20260906103119 75 182 0.0 0.0 0.00 0.00 0.00 91 1015.4
20260906102614 75 183 1.0 1.0 0.00 0.00 0.00 91 1015.5
20260906102109 75 181 0.0 0.0 0.00 0.00 0.00 90 1015.0
20260906101608 75 183 1.0 1.0 0.00 0.00 0.00 90 1015.1
20260906101103 75 184 1.0 2.0 0.00 0.00 0.00 90 1015.3
20260906100558 75 183 0.0 0.0 0.00 0.00 0.00 91 1015.3
20260906100053 75 183 0.0 0.0 0.00 0.00 0.00 91 1015.0
20260906095553 75 184 0.0 0.0 0.00 0.00 0.00 89 1014.7
20260906095048 75 185 0.0 0.0 0.00 0.00 0.00 89 1015.0
20260906094547 76 188 0.0 0.0 0.00 0.00 0.00 89 1015.0
20260906094044 76 280 0.0 0.0 0.00 0.00 0.00 89 1014.7
20260906093539 76 274 0.0 1.0 0.00 0.00 0.00 88 1014.7
20260906093034 76 273 0.0 0.0 0.00 0.00 0.00 88 1014.5
20260906092529 76 274 1.0 1.0 0.00 0.00 0.00 88 1014.5
20260906092024 76 260 2.0 2.0 0.00 0.00 0.00 88 1014.2
20260906091520 76 256 0.0 0.0 0.00 0.00 0.00 88 1014.4
20260906091016 77 242 1.0 1.0 0.00 0.00 0.00 87 1014.3
20260906090516 78 287 0.0 0.0 0.00 0.00 0.00 84 1014.4
20260906090011 78 287 0.0 0.0 0.00 0.00 0.00 83 1014.7
20260906085509 78 305 0.0 1.0 0.00 0.00 0.00 82 1014.9
20260906085004 79 11 2.0 2.0 0.00 0.00 0.00 82 1014.9
20260906084459 79 330 3.0 3.0 0.00 0.00 0.00 82 1015.4
20260906083957 79 3 6.0 7.0 0.00 0.00 0.00 84 1015.4
20260906083453 79 204 5.0 6.0 0.00 0.00 0.00 82 1015.4
20260906082952 79 158 3.0 5.0 0.00 0.00 0.00 84 1015.5
20260906082448 80 161 5.0 6.0 0.00 0.00 0.00 84 1015.6
20260906081943 79 169 4.0 5.0 0.00 0.00 0.00 85 1015.3
20260906081438 79 202 5.0 5.0 0.00 0.00 0.00 86 1015.3
20260906080934 80 194 5.0 5.0 0.00 0.00 0.00 86 1015.3
20260906080431 80 156 6.0 7.0 0.00 0.00 0.00 87 1015.3
20260906075931 79 188 4.0 5.0 0.00 0.00 0.00 90 1015.3
20260906075426 79 184 3.0 5.0 0.00 0.00 0.00 91 1015.1
20260906074920 80 187 3.0 5.0 0.00 0.00 0.00 90 1015.0
20260906074415 80 153 6.0 7.0 0.00 0.00 0.00 89 1014.9
20260906073914 80 161 6.0 7.0 0.00 0.00 0.00 89 1015.0
20260906073409 80 153 4.0 5.0 0.00 0.00 0.00 90 1015.0
20260906072905 80 179 3.0 3.0 0.00 0.00 0.00 90 1015.1
20260906072400 80 163 5.0 5.0 0.00 0.00 0.00 90 1015.1
20260906071856 79 163 5.0 6.0 0.00 0.00 0.00 90 1015.1
20260906071351 79 171 4.0 5.0 0.00 0.00 0.00 92 1015.1
20260906070847 79 182 5.0 5.0 0.00 0.00 0.00 93 1015.0
20260906070343 78 180 0.0 0.0 0.00 0.00 0.00 93 1015.3
20260906065838 78 180 0.0 0.0 0.00 0.00 0.00 93 1015.3
20260906065333 78 180 0.0 0.0 0.00 0.00 0.00 93 1015.2
20260906064828 77 180 0.0 1.0 0.00 0.00 0.00 93 1015.2
20260906064324 77 181 0.0 0.0 0.00 0.00 0.00 93 1014.9
20260906063819 77 181 1.0 1.0 0.00 0.00 0.00 94 1015.0
20260906063315 77 180 0.0 1.0 0.00 0.00 0.00 94 1015.1
20260906062810 77 180 0.0 0.0 0.00 0.00 0.00 95 1015.2
20260906062308 77 180 0.0 0.0 0.00 0.00 0.00 95 1015.1
20260906061804 77 179 1.0 1.0 0.00 0.00 0.00 95 1015.2
20260906061301 77 181 1.0 1.0 0.00 0.00 0.00 95 1015.0
20260906060755 77 180 0.0 0.0 0.00 0.00 0.00 95 1015.0
20260906060253 78 181 1.0 1.0 0.00 0.00 0.00 94 1015.1
20260906055749 78 180 0.0 0.0 0.00 0.00 0.00 94 1015.1
20260906055244 78 180 0.0 0.0 0.00 0.00 0.00 93 1015.0
20260906054739 78 180 0.0 0.0 0.00 0.00 0.00 93 1015.1
20260906054234 78 180 0.0 0.0 0.00 0.00 0.00 93 1014.9
20260906053731 78 180 0.0 0.0 0.00 0.00 0.00 93 1015.2
20260906053226 78 180 0.0 0.0 0.00 0.00 0.00 94 1015.1
20260906052721 78 181 1.0 1.0 0.00 0.00 0.00 93 1015.2
20260906052217 78 182 2.0 2.0 0.00 0.00 0.00 93 1015.0
20260906051714 78 180 0.0 0.0 0.00 0.00 0.00 93 1015.1
20260906051213 78 181 1.0 1.0 0.00 0.00 0.00 93 1015.0
20260906050709 78 181 1.0 1.0 0.00 0.00 0.00 93 1015.0
20260906050204 78 180 0.0 0.0 0.00 0.00 0.00 93 1015.2
20260906045702 78 180 1.0 1.0 0.00 0.00 0.00 93 1015.3
20260906045157 78 180 0.0 0.0 0.00 0.00 0.00 94 1015.1
20260906044653 78 181 1.0 1.0 0.00 0.00 0.00 94 1015.2
20260906044148 78 180 0.0 0.0 0.00 0.00 0.00 93 1015.2
20260906043645 78 180 0.0 0.0 0.00 0.00 0.00 93 1015.4
20260906043140 79 180 1.0 1.0 0.00 0.00 0.00 92 1015.5
20260906042639 79 180 0.0 0.0 0.00 0.00 0.00 92 1015.3
20260906042134 78 180 0.0 1.0 0.00 0.00 0.00 92 1015.3
20260906041629 78 180 0.0 0.0 0.00 0.00 0.00 92 1015.3
20260906041124 78 181 1.0 2.0 0.00 0.00 0.00 93 1015.4
20260906040620 78 179 1.0 1.0 0.00 0.00 0.00 93 1015.4
20260906040115 78 180 0.0 0.0 0.00 0.00 0.00 92 1015.4
20260906035610 78 181 1.0 1.0 0.00 0.00 0.00 92 1015.4
20260906035105 79 180 0.0 0.0 0.00 0.00 0.00 92 1015.3
20260906034600 79 180 0.0 0.0 0.00 0.00 0.00 92 1015.3
20260906034100 79 181 0.0 1.0 0.00 0.00 0.00 92 1015.3
20260906033550 79 180 1.0 1.0 0.00 0.00 0.00 92 1015.3
20260906033045 79 181 1.0 2.0 0.00 0.00 0.00 92 1015.1
20260906032541 79 181 1.0 2.0 0.00 0.00 0.00 92 1015.1
20260906032036 79 181 1.0 1.0 0.00 0.00 0.00 92 1015.1
20260906031532 79 182 1.0 1.0 0.00 0.00 0.00 92 1015.2
20260906031028 79 180 1.0 2.0 0.00 0.00 0.00 92 1015.0
20260906030526 79 180 1.0 1.0 0.00 0.00 0.00 91 1015.0
20260906030026 79 180 0.0 0.0 0.00 0.00 0.00 91 1015.2
20260906025526 80 180 0.0 1.0 0.00 0.00 0.00 90 1015.1
20260906025024 80 181 1.0 1.0 0.00 0.00 0.00 90 1015.2
20260906024519 80 179 0.0 0.0 0.00 0.00 0.00 90 1014.9
20260906024014 80 181 2.0 2.0 0.00 0.00 0.00 89 1014.9
20260906023510 80 252 1.0 1.0 0.00 0.00 0.00 88 1014.9
20260906023005 80 251 1.0 1.0 0.00 0.00 0.00 88 1014.8
20260906022500 81 251 1.0 1.0 0.00 0.00 0.00 87 1014.9
20260906021955 81 270 1.0 2.0 0.00 0.00 0.00 86 1014.8
20260906021450 82 268 1.0 1.0 0.00 0.00 0.00 85 1014.9
20260906020944 83 274 0.0 1.0 0.00 0.00 0.00 84 1014.9
20260906020439 84 281 1.0 1.0 0.00 0.00 0.00 84 1014.7
20260906015939 84 20 2.0 3.0 0.00 0.00 0.00 85 1014.9
20260906015438 83 28 4.0 5.0 0.00 0.00 0.00 85 1015.1
20260906014932 83 1 1.0 1.0 0.00 0.00 0.00 85 1014.8
20260906014432 84 16 1.0 1.0 0.00 0.00 0.00 84 1014.7
20260906013923 84 50 3.0 3.0 0.00 0.00 0.00 84 1014.8
20260906013418 83 349 1.0 1.0 0.00 0.00 0.00 83 1014.5
20260906012914 82 336 1.0 2.0 0.00 0.00 0.00 83 1014.6
20260906012408 82 272 0.0 0.0 0.00 0.00 0.00 83 1014.7
20260906011907 82 273 0.0 0.0 0.00 0.00 0.00 83 1014.4
20260906011403 83 314 1.0 1.0 0.00 0.00 0.00 82 1014.1
20260906010858 83 325 2.0 2.0 0.00 0.00 0.00 83 1013.7
20260906010354 84 289 1.0 1.0 0.00 0.00 0.00 82 1013.6
20260906005850 84 331 2.0 2.0 0.00 0.00 0.00 80 1013.4
20260906005349 85 12 2.0 2.0 0.00 0.00 0.00 81 1013.4
20260906004847 85 67 1.0 2.0 0.00 0.00 0.00 82 1013.4
20260906004347 84 40 1.0 2.0 0.00 0.00 0.00 78 1013.4
20260906003843 84 349 3.0 3.0 0.00 0.00 0.00 77 1013.4
20260906003338 85 12 3.0 3.0 0.00 0.00 0.00 78 1013.6
20260906002833 85 353 5.0 5.0 0.00 0.00 0.00 76 1013.6
20260906002333 86 358 4.0 5.0 0.00 0.00 0.00 75 1013.7
20260906001829 86 345 4.0 5.0 0.00 0.00 0.00 73 1013.8
20260906001324 86 289 0.0 1.0 0.00 0.00 0.00 72 1013.7
20260906000819 86 20 2.0 3.0 0.00 0.00 0.00 70 1013.8
20260906000314 86 0 3.0 5.0 0.00 0.00 0.00 80 1013.5
20260905235809 86 68 4.0 6.0 0.00 0.00 0.00 80 1013.6
20260905235308 85 317 1.0 2.0 0.00 0.00 0.00 75 1013.3
20260905234804 86 262 0.0 0.0 0.00 0.00 0.00 79 1013.3
20260905234259 86 267 0.0 0.0 0.00 0.00 0.00 77 1013.7
20260905233754 87 272 0.0 1.0 0.00 0.00 0.00 74 1013.5
20260905233254 88 272 1.0 2.0 0.00 0.00 0.00 71 1013.6
20260905232753 88 273 1.0 1.0 0.00 0.00 0.00 70 1013.6
20260905232249 89 288 0.0 1.0 0.00 0.00 0.00 68 1013.6
20260905231744 90 350 5.0 6.0 0.00 0.00 0.00 57 1013.4
20260905231239 90 5 4.0 5.0 0.00 0.00 0.00 58 1013.5
20260905230736 90 13 4.0 5.0 0.00 0.00 0.00 58 1013.5
20260905230233 90 2 3.0 3.0 0.00 0.00 0.00 67 1013.2
20260905225728 89 0 3.0 3.0 0.00 0.00 0.00 68 1013.4
20260905225224 90 325 1.0 1.0 0.00 0.00 0.00 68 1013.1
20260905224722 91 22 3.0 5.0 0.00 0.00 0.00 63 1013.1
20260905224218 91 18 4.0 5.0 0.00 0.00 0.00 65 1013.3
20260905223714 91 72 3.0 5.0 0.00 0.00 0.00 66 1013.2
20260905223211 91 338 3.0 3.0 0.00 0.00 0.00 62 1013.1
20260905222706 91 342 5.0 6.0 0.00 0.00 0.00 63 1013.3
20260905222205 92 16 9.0 10.0 0.00 0.00 0.00 62 1013.3
20260905221701 95 39 9.0 13.0 0.00 0.00 0.00 57 1013.4
20260905221157 95 285 2.0 2.0 0.00 0.00 0.00 56 1013.3